TimeEST,TemperatureF,Dew PointF,Humidity,Sea Level PressureIn,VisibilityMPH,Wind Direction,Wind SpeedMPH,Gust SpeedMPH,PrecipitationIn,Events,Conditions,WindDirDegrees,DateUTC
12:53 AM,59.0,53.1,81,29.96,10.0,SW,11.5,-,N/A,,Clear,230,2013-02-12 05:53:00
1:53 AM,57.9,53.1,84,29.98,10.0,SW,11.5,-,N/A,,Clear,230,2013-02-12 06:53:00
2:53 AM,57.0,53.1,87,29.98,10.0,WSW,9.2,-,N/A,,Clear,250,2013-02-12 07:53:00
3:53 AM,55.0,53.1,93,29.97,10.0,West,5.8,-,N/A,,Clear,260,2013-02-12 08:53:00
4:53 AM,54.0,51.1,90,29.98,10.0,WSW,5.8,-,N/A,,Clear,240,2013-02-12 09:53:00
5:53 AM,53.1,51.1,93,29.99,10.0,WSW,6.9,-,N/A,,Clear,240,2013-02-12 10:53:00
6:53 AM,52.0,50.0,93,30.02,10.0,WSW,5.8,-,N/A,,Clear,240,2013-02-12 11:53:00
7:53 AM,52.0,48.9,89,30.04,10.0,West,5.8,-,N/A,,Clear,280,2013-02-12 12:53:00
8:53 AM,53.1,45.0,74,30.04,10.0,NNW,8.1,-,N/A,,Clear,340,2013-02-12 13:53:00
9:53 AM,54.0,36.0,51,30.07,10.0,NNW,8.1,-,N/A,,Clear,340,2013-02-12 14:53:00
10:53 AM,55.9,30.9,39,30.09,10.0,WNW,5.8,-,N/A,,Clear,290,2013-02-12 15:53:00
11:53 AM,61.0,26.1,26,30.04,10.0,NW,3.5,-,N/A,,Clear,320,2013-02-12 16:53:00
12:53 PM,62.1,25.0,24,30.02,10.0,WNW,3.5,-,N/A,,Clear,300,2013-02-12 17:53:00
1:53 PM,64.0,23.0,21,29.97,10.0,Calm,Calm,-,N/A,,Clear,0,2013-02-12 18:53:00
2:53 PM,64.9,25.0,22,29.97,10.0,WNW,5.8,-,N/A,,Clear,290,2013-02-12 19:53:00
3:53 PM,64.9,25.0,22,29.96,10.0,SW,6.9,-,N/A,,Clear,220,2013-02-12 20:53:00
4:53 PM,63.0,28.9,28,29.96,10.0,WSW,4.6,-,N/A,,Clear,250,2013-02-12 21:53:00
5:53 PM,60.1,32.0,35,29.98,10.0,WSW,4.6,-,N/A,,Clear,240,2013-02-12 22:53:00
6:53 PM,55.0,39.0,55,29.96,10.0,SSW,3.5,-,N/A,,Partly Cloudy,200,2013-02-12 23:53:00
7:53 PM,54.0,39.9,59,29.93,10.0,NNE,6.9,-,N/A,,Scattered Clouds,30,2013-02-13 00:53:00
8:53 PM,55.0,37.0,51,29.96,10.0,Calm,Calm,-,N/A,,Overcast,0,2013-02-13 01:53:00
9:53 PM,53.1,43.0,69,29.96,10.0,Calm,Calm,-,0.00,,Overcast,0,2013-02-13 02:53:00
10:53 PM,50.0,46.9,89,29.99,10.0,SW,3.5,-,0.04,Rain,Light Rain,230,2013-02-13 03:53:00
11:53 PM,50.0,46.9,89,29.97,8.0,Calm,Calm,-,0.06,Rain,Light Rain,0,2013-02-13 04:53:00